sat.trackr.live / text

‹ back to catalog

FLOCK 4Q-26

NORAD 58284 · 2023-174AE

PAYLOAD ACTIVE UNKNOWN

§ Identity

Operator
Country
US
Launch date
2023-11-11
Launch site
AFWTR
Launch vehicle
Mass (kg)
RCS (m²)

Purposes: earth_obs

External: N2YO · Heavens-Above · Gunter

§ Orbital elements

Epoch: 2026-05-25T04:40:26.781888Z

Period
92.57 min
Inclination
97.3869°
Eccentricity
0.0005828
Mean motion
15.55601602 rev/d
Perigee alt
396.5 km
Apogee alt
404.4 km
Semi-major
6,778.5 km
B*
4.7846e-4
RAAN
236.8584°
Arg perigee
217.9724°
Mean anomaly
142.1120°
Rev number
14,225

§ Raw data

FLOCK 4Q-261 58284U 23174AE  26145.19475442  .00032794  00000+0  47846-3 0  99942 58284  97.3869 236.8584 0005828 217.9724 142.1120 15.55601602142258

JSON: /api/v1/satellites/58284 · /tle

For live sub-satellite position, see the globe view (requires WebGL).

§ Visibility from observer

Set your observer location to see the next 7 days of passes ≥ 10°. The values pass through the URL so the page stays shareable.

No JS? Fill the form by hand. The geolocation button needs JavaScript.